User: anonymous
Location: Fort Wayne
(41.1310°N, 85.1290°W)
Time: 23:59:08
(UTC-04:00)
Language:

Meteor 2-9 Rocket - Orbit

View from above orbital plane
View from above orbital plane
View from above satellite
View from above satellite

Ground track
Ground track

The orbit data is extracted from the following two-line orbital elements,

1 13719U 82116B   14273.48278616  .00000070  00000-0  29388-4 0  5221
2 13719 081.2531 250.8062 0070832 299.0269 178.4197 14.14482743640301
Epoch (UTC): 30 September 2014 11:35:12
Eccentricity: 0.0070832
inclination: 81.2531°
perigee height: 793 km
apogee height: 895 km
right ascension of ascending node: 250.8062°
argument of perigee: 299.0269°
revolutions per day: 14.14482743
mean anomaly at epoch: 178.4197°
orbit number at epoch: 64030

The dashed part of the orbit path shows where the satellite is in the earth's shadow,  

DLR